Showing default

COSMOS 2447 (GLONASS), 33466

Orbit data source: Space-Track

COSMOS 2447 (GLONASS), 33466 is a Commonwealth of Independent States-origin payload satellite in MEO that was launched on Thu, 25 Dec 2008 UTC via a PROTON-M/DM-2 launch vehicle from the Tyuratam Missile And Space Complex (TTMTR). Payload-class satellites include a variety of spacecraft equipped with specific instruments for various scientific and technological missions. These include communications satellites like Starlink; space stations such as the ISS; scientific satellites like the Hubble; Earth observation satellites from companies like Planet Labs, Umbra, and HawkEye 360; GPS; miniature CubeSats for education and research; and military/defense satellites.

Loading next visibility...
Identifier
33466, 2008-067A
Orbit
MEO
Country
Flag of CISCIS
Related business
Manufacturer
Resehetnev ISS
Mission
Non-operational Defense Navigation
Bus & Motor
URAGAN, Unknown motor
Mass
1,450 kg wet, ~1,200 kg dry
Launch date (UTC)
2008-12-25 (17 years ago)
Launch vehicle
PROTON-M/DM-2
Launch site
Tyuratam Missile And Space Complex (TTMTR)
Object type
Payload
Rocket body
Debris
Shape & HBR
Cyl + 1 Ant + 2 Pan, 3.9 m
Radar Cross Section
8.467 m², Large (>1 m²)

Expand to show TLE details & history
Last TLE update: 2 days ago

TLE from 2 days ago
0 COSMOS 2447 (GLONASS)
1 33466U 08067A   26171.33092674 -.00000045  00000-0  00000+0 0  9993
2 33466  64.8213  69.2416 0007122 266.1245 283.5725  2.13107727136039
Epoch: 2026-06-20T07:56Z
TLE epoch observation values (Epoch: 2026-06-20T07:56:32.070Z)
Latitude
-8.72945°
Longitude
-134.29704°
Altitude
19,127.326 km
Speed
3.954 km/s
True Right ascension
16h 53m 32s
True Declination
-8° 42' 54"
Sunlit
Object was in daylight at epoch
Visualization orbit readout
Latitude
Unknown
Longitude
Unknown
Altitude
Unknown
Speed
Unknown
Apparent Right ascension
Unknown
Apparent Declination
Unknown
Sunlit
N/A
Visualization observer readout
Local Sidereal Time
02:17:34
Azimuth
Unknown
Elevation
Unknown
Doppler factor
Unknown
Orbital elements
Apogee altitude
19,147.218 km
Perigee altitude
19,110.885 km
Semi-major axis
25,507.189 km
Eccentricity
0.00071
Inclination
64.8213°
RAAN
69.2416°
Arg. of periapsis
266.1245°
True anomaly
283.49315°
Mean anomaly
283.5725°
Eccentric anomaly
283.53283°
Mean motion
0.53278 °/min
Orbital period
675.7 mins
BSTAR
0
Loading maneuver chart data...
Computing Atmospheric mass density...
Loading historical data...
Loading historical data...
Loading historical data...
Loading historical data...
Loading historical data...
Loading historical data...
Loading historical data...

Documentation

Showing up to 5 results
|